Tracking 28790 objects as of 18-Apr-2024
HD Live streaming from Space Station
objects crossing your sky now

COSMOS 2251 DEB

Track COSMOS 2251 DEB now!
10-day predictions


NORAD ID: 33992
Int'l Code: 1993-036GB
Perigee: 663.6 km
Apogee: 753.8 km
Inclination: 74.0 °
Period: 98.8 minutes
Semi major axis: 7079 km
RCS: 0.0615 m2 (small)
Launch date: June 16, 1993
Source: Commonwealth of Independent States (former USSR) (CIS)
Launch site: PLESETSK MISSILE AND SPACE COMPLEX (PKMTR)

Note: This is SATELLITE DEBRIS
Your satellite tracking list
Your tracking list is empty




NASA's NSSDC Master Catalog

Two Line Element Set (TLE):
1 33992U 93036GB  24108.92389671  .00012334  00000-0  26464-2 0  9994
2 33992  74.0276  54.9957 0063741 321.8500 104.2020 14.57408535802992
Source of the keplerian elements: AFSPC